Time,TemperatureF,DewpointF,PressureIn,WindDirection,WindDirectionDegrees,WindSpeedMPH,WindSpeedGustMPH,Humidity,HourlyPrecipIn,Conditions,Clouds,dailyrainin,SolarRadiationWatts/m^2,SoftwareType,DateUTC
2013-11-22 00:21:00,41.0,41.0,-100.00,NE,50,0.0,6.0,100,0.00,,,0.77,0.000000,,2013-11-22 08:21:00,
2013-11-22 00:32:00,41.0,41.0,-100.00,NE,50,0.0,6.0,100,0.00,,,0.77,0.000000,,2013-11-22 08:32:00,
2013-11-22 00:42:00,41.0,41.0,-100.00,NE,50,0.0,6.0,100,0.00,,,0.77,0.000000,,2013-11-22 08:42:00,
2013-11-22 00:52:00,41.0,41.0,-100.00,NE,50,0.0,6.0,100,0.00,,,0.77,0.000000,,2013-11-22 08:52:00,
2013-11-22 01:21:00,41.0,41.0,-100.00,East,94,0.0,0.0,100,0.00,,,0.77,0.000000,,2013-11-22 09:21:00,
2013-11-22 01:34:00,41.0,41.0,-100.00,East,94,0.0,0.0,100,0.00,,,0.77,0.000000,,2013-11-22 09:34:00,
2013-11-22 01:43:00,41.0,41.0,-100.00,East,94,0.0,0.0,100,0.00,,,0.77,0.000000,,2013-11-22 09:43:00,
2013-11-22 01:53:00,41.0,41.0,-100.00,East,94,0.0,0.0,100,0.00,,,0.77,0.000000,,2013-11-22 09:53:00,
2013-11-22 02:23:00,41.0,41.0,-100.00,East,98,0.0,4.0,100,0.00,,,0.77,0.000000,,2013-11-22 10:23:00,
2013-11-22 02:33:00,41.0,41.0,-100.00,East,98,0.0,4.0,100,0.00,,,0.77,0.000000,,2013-11-22 10:33:00,
2013-11-22 02:42:00,41.0,41.0,-100.00,East,98,0.0,4.0,100,0.00,,,0.77,0.000000,,2013-11-22 10:42:00,
2013-11-22 02:52:00,41.0,41.0,-100.00,East,98,0.0,4.0,100,0.00,,,0.77,0.000000,,2013-11-22 10:52:00,
2013-11-22 03:22:00,42.0,42.0,-100.00,NE,34,0.0,5.0,100,0.01,,,0.78,0.000000,,2013-11-22 11:22:00,
2013-11-22 03:33:00,42.0,42.0,-100.00,NE,34,0.0,5.0,100,0.01,,,0.78,0.000000,,2013-11-22 11:33:00,
2013-11-22 03:42:00,42.0,42.0,-100.00,NE,34,0.0,5.0,100,0.01,,,0.78,0.000000,,2013-11-22 11:42:00,
2013-11-22 03:52:00,42.0,42.0,-100.00,NE,34,0.0,5.0,100,0.01,,,0.78,0.000000,,2013-11-22 11:52:00,
2013-11-22 04:22:00,40.0,40.0,-100.00,East,96,0.0,0.0,100,0.00,,,0.76,0.000000,,2013-11-22 12:22:00,
2013-11-22 04:32:00,40.0,40.0,-100.00,East,96,0.0,0.0,100,0.00,,,0.76,0.000000,,2013-11-22 12:32:00,
2013-11-22 04:42:00,40.0,40.0,-100.00,East,96,0.0,0.0,100,0.00,,,0.76,0.000000,,2013-11-22 12:42:00,
2013-11-22 04:52:00,40.0,40.0,-100.00,East,96,0.0,0.0,100,0.00,,,0.76,0.000000,,2013-11-22 12:52:00,
2013-11-22 05:22:00,41.0,41.0,-100.00,West,279,0.0,0.0,100,0.00,,,0.68,0.000000,,2013-11-22 13:22:00,
2013-11-22 05:32:00,41.0,41.0,-100.00,West,279,0.0,0.0,100,0.00,,,0.68,0.000000,,2013-11-22 13:32:00,
2013-11-22 05:42:00,41.0,41.0,-100.00,West,279,0.0,0.0,100,0.00,,,0.68,0.000000,,2013-11-22 13:42:00,
2013-11-22 05:52:00,41.0,41.0,-100.00,West,279,0.0,0.0,100,0.00,,,0.68,0.000000,,2013-11-22 13:52:00,
2013-11-22 06:22:00,41.0,41.0,-100.00,NNW,337,0.0,3.0,100,0.00,,,0.67,0.000000,,2013-11-22 14:22:00,
2013-11-22 06:32:00,41.0,41.0,-100.00,NNW,337,0.0,3.0,100,0.00,,,0.67,0.000000,,2013-11-22 14:32:00,
2013-11-22 06:42:00,41.0,41.0,-100.00,NNW,337,0.0,3.0,100,0.00,,,0.67,0.000000,,2013-11-22 14:42:00,
2013-11-22 06:52:00,41.0,41.0,-100.00,NNW,337,0.0,3.0,100,0.00,,,0.67,0.000000,,2013-11-22 14:52:00,
2013-11-22 07:22:00,41.0,41.0,-100.00,ESE,105,0.0,4.0,100,0.00,,,0.60,0.000000,,2013-11-22 15:22:00,
2013-11-22 07:34:00,41.0,41.0,-100.00,ESE,105,0.0,4.0,100,0.00,,,0.60,0.000000,,2013-11-22 15:34:00,
2013-11-22 07:43:00,41.0,41.0,-100.00,ESE,105,0.0,4.0,100,0.00,,,0.60,0.000000,,2013-11-22 15:43:00,
2013-11-22 07:54:00,41.0,41.0,-100.00,ESE,105,0.0,4.0,100,0.00,,,0.60,0.000000,,2013-11-22 15:54:00,
2013-11-22 08:23:00,42.0,42.0,-100.00,SW,217,0.0,3.0,100,0.00,,,0.52,12.000000,,2013-11-22 16:23:00,
2013-11-22 08:33:00,42.0,42.0,-100.00,SW,217,0.0,3.0,100,0.00,,,0.52,12.000000,,2013-11-22 16:33:00,
2013-11-22 08:43:00,42.0,42.0,-100.00,SW,217,0.0,3.0,100,0.00,,,0.52,12.000000,,2013-11-22 16:43:00,
2013-11-22 08:52:00,42.0,42.0,-100.00,SW,217,0.0,3.0,100,0.00,,,0.52,12.000000,,2013-11-22 16:52:00,
2013-11-22 09:22:00,42.0,42.0,-100.00,WNW,295,0.0,2.0,100,0.00,,,-99.99,77.000000,,2013-11-22 17:22:00,
2013-11-22 09:34:00,42.0,42.0,-100.00,WNW,295,0.0,2.0,100,0.00,,,-99.99,77.000000,,2013-11-22 17:34:00,
2013-11-22 09:42:00,42.0,42.0,-100.00,WNW,295,0.0,2.0,100,0.00,,,-99.99,77.000000,,2013-11-22 17:42:00,
2013-11-22 09:52:00,42.0,42.0,-100.00,WNW,295,0.0,2.0,100,0.00,,,-99.99,77.000000,,2013-11-22 17:52:00,
2013-11-22 10:21:00,45.0,45.0,-100.00,East,94,0.0,5.0,99,0.00,,,0.52,148.000000,,2013-11-22 18:21:00,
2013-11-22 10:32:00,45.0,45.0,-100.00,East,94,0.0,5.0,99,0.00,,,0.52,148.000000,,2013-11-22 18:32:00,
2013-11-22 10:42:00,45.0,45.0,-100.00,East,94,0.0,5.0,99,0.00,,,0.52,148.000000,,2013-11-22 18:42:00,
2013-11-22 10:52:00,45.0,45.0,-100.00,East,94,0.0,5.0,99,0.00,,,0.52,148.000000,,2013-11-22 18:52:00,
2013-11-22 11:21:00,43.0,43.0,-100.00,WSW,242,1.0,5.0,99,0.00,,,0.51,174.000000,,2013-11-22 19:21:00,
2013-11-22 11:32:00,43.0,43.0,-100.00,WSW,242,1.0,5.0,99,0.00,,,0.51,174.000000,,2013-11-22 19:32:00,
2013-11-22 11:42:00,43.0,43.0,-100.00,WSW,242,1.0,5.0,99,0.00,,,0.51,174.000000,,2013-11-22 19:42:00,
2013-11-22 11:52:00,43.0,43.0,-100.00,WSW,242,1.0,5.0,99,0.00,,,0.51,174.000000,,2013-11-22 19:52:00,
2013-11-22 12:21:00,43.0,43.0,-100.00,WNW,283,1.0,5.0,99,0.00,,,0.32,169.000000,,2013-11-22 20:21:00,
2013-11-22 12:32:00,43.0,43.0,-100.00,WNW,283,1.0,5.0,99,0.00,,,0.32,169.000000,,2013-11-22 20:32:00,
2013-11-22 12:42:00,43.0,43.0,-100.00,WNW,283,1.0,5.0,99,0.00,,,0.32,169.000000,,2013-11-22 20:42:00,
2013-11-22 12:52:00,43.0,43.0,-100.00,WNW,283,1.0,5.0,99,0.00,,,0.32,169.000000,,2013-11-22 20:52:00,
2013-11-22 13:22:00,42.0,42.0,-100.00,West,267,2.0,7.0,100,0.01,,,0.31,88.000000,,2013-11-22 21:22:00,
2013-11-22 13:33:00,42.0,42.0,-100.00,West,267,2.0,7.0,100,0.01,,,0.31,88.000000,,2013-11-22 21:33:00,
2013-11-22 13:43:00,42.0,42.0,-100.00,West,267,2.0,7.0,100,0.01,,,0.31,88.000000,,2013-11-22 21:43:00,
2013-11-22 13:53:00,42.0,42.0,-100.00,West,267,2.0,7.0,100,0.01,,,0.31,88.000000,,2013-11-22 21:53:00,
2013-11-22 14:23:00,42.0,42.0,-100.00,WNW,294,0.0,6.0,100,0.00,,,0.29,74.000000,,2013-11-22 22:23:00,
2013-11-22 14:33:00,42.0,42.0,-100.00,WNW,294,0.0,6.0,100,0.00,,,0.29,74.000000,,2013-11-22 22:33:00,
2013-11-22 14:42:00,42.0,42.0,-100.00,WNW,294,0.0,6.0,100,0.00,,,0.29,74.000000,,2013-11-22 22:42:00,
2013-11-22 14:53:00,42.0,42.0,-100.00,WNW,294,0.0,6.0,100,0.00,,,0.29,74.000000,,2013-11-22 22:53:00,
2013-11-22 15:22:00,43.0,43.0,-100.00,NNW,329,0.0,5.0,100,0.01,,,0.27,101.000000,,2013-11-22 23:22:00,
2013-11-22 15:33:00,43.0,43.0,-100.00,NNW,329,0.0,5.0,100,0.01,,,0.27,101.000000,,2013-11-22 23:33:00,
2013-11-22 15:42:00,43.0,43.0,-100.00,NNW,329,0.0,5.0,100,0.01,,,0.27,101.000000,,2013-11-22 23:42:00,
2013-11-22 15:52:00,43.0,43.0,-100.00,NNW,329,0.0,5.0,100,0.01,,,0.27,101.000000,,2013-11-22 23:52:00,
2013-11-22 16:21:00,43.0,43.0,-100.00,West,266,0.0,3.0,100,0.00,,,0.26,43.000000,,2013-11-23 00:21:00,
2013-11-22 16:32:00,43.0,43.0,-100.00,West,266,0.0,3.0,100,0.00,,,0.26,43.000000,,2013-11-23 00:32:00,
2013-11-22 16:42:00,43.0,43.0,-100.00,West,266,0.0,3.0,100,0.00,,,0.26,43.000000,,2013-11-23 00:42:00,
2013-11-22 16:52:00,43.0,43.0,-100.00,West,266,0.0,3.0,100,0.00,,,0.26,43.000000,,2013-11-23 00:52:00,
2013-11-22 17:21:00,41.0,41.0,-100.00,West,275,0.0,4.0,100,0.00,,,0.26,5.000000,,2013-11-23 01:21:00,
2013-11-22 17:32:00,41.0,41.0,-100.00,West,275,0.0,4.0,100,0.00,,,0.26,5.000000,,2013-11-23 01:32:00,
2013-11-22 17:42:00,41.0,41.0,-100.00,West,275,0.0,4.0,100,0.00,,,0.26,5.000000,,2013-11-23 01:42:00,
2013-11-22 17:52:00,41.0,41.0,-100.00,West,275,0.0,4.0,100,0.00,,,0.26,5.000000,,2013-11-23 01:52:00,
2013-11-22 18:22:00,41.0,41.0,-100.00,WSW,244,0.0,5.0,100,0.00,,,0.07,0.000000,,2013-11-23 02:22:00,
2013-11-22 18:32:00,41.0,41.0,-100.00,WSW,244,0.0,5.0,100,0.00,,,0.07,0.000000,,2013-11-23 02:32:00,
2013-11-22 18:42:00,41.0,41.0,-100.00,WSW,244,0.0,5.0,100,0.00,,,0.07,0.000000,,2013-11-23 02:42:00,
2013-11-22 18:52:00,41.0,41.0,-100.00,WSW,244,0.0,5.0,100,0.00,,,0.07,0.000000,,2013-11-23 02:52:00,
2013-11-22 19:22:00,41.0,41.0,-100.00,WSW,240,0.0,5.0,100,0.00,,,0.03,0.000000,,2013-11-23 03:22:00,
2013-11-22 19:33:00,41.0,41.0,-100.00,WSW,240,0.0,5.0,100,0.00,,,0.03,0.000000,,2013-11-23 03:33:00,
2013-11-22 19:43:00,41.0,41.0,-100.00,WSW,240,0.0,5.0,100,0.00,,,0.03,0.000000,,2013-11-23 03:43:00,
2013-11-22 19:53:00,41.0,41.0,-100.00,WSW,240,0.0,5.0,100,0.00,,,0.03,0.000000,,2013-11-23 03:53:00,
2013-11-22 20:23:00,42.0,42.0,-100.00,North,357,0.0,6.0,100,0.00,,,0.03,0.000000,,2013-11-23 04:23:00,
2013-11-22 20:33:00,42.0,42.0,-100.00,North,357,0.0,6.0,100,0.00,,,0.03,0.000000,,2013-11-23 04:33:00,
2013-11-22 20:43:00,42.0,42.0,-100.00,North,357,0.0,6.0,100,0.00,,,0.03,0.000000,,2013-11-23 04:43:00,
2013-11-22 20:53:00,42.0,42.0,-100.00,North,357,0.0,6.0,100,0.00,,,0.03,0.000000,,2013-11-23 04:53:00,
2013-11-22 21:22:00,40.0,40.0,-100.00,NW,309,0.0,0.0,100,0.00,,,0.03,0.000000,,2013-11-23 05:22:00,
2013-11-22 21:33:00,40.0,40.0,-100.00,NW,309,0.0,0.0,100,0.00,,,0.03,0.000000,,2013-11-23 05:33:00,
2013-11-22 21:42:00,40.0,40.0,-100.00,NW,309,0.0,0.0,100,0.00,,,0.03,0.000000,,2013-11-23 05:42:00,
2013-11-22 21:53:00,40.0,40.0,-100.00,NW,309,0.0,0.0,100,0.00,,,0.03,0.000000,,2013-11-23 05:53:00,
2013-11-22 22:22:00,41.0,41.0,-100.00,SSE,148,0.0,0.0,100,0.00,,,0.03,0.000000,,2013-11-23 06:22:00,
2013-11-22 22:32:00,41.0,41.0,-100.00,SSE,148,0.0,0.0,100,0.00,,,0.03,0.000000,,2013-11-23 06:32:00,
2013-11-22 22:42:00,41.0,41.0,-100.00,SSE,148,0.0,0.0,100,0.00,,,0.03,0.000000,,2013-11-23 06:42:00,
2013-11-22 22:52:00,41.0,41.0,-100.00,SSE,148,0.0,0.0,100,0.00,,,0.03,0.000000,,2013-11-23 06:52:00,
2013-11-22 23:21:00,41.0,41.0,-100.00,SW,219,0.0,3.0,100,0.00,,,0.03,0.000000,,2013-11-23 07:21:00,
2013-11-22 23:32:00,41.0,41.0,-100.00,SW,219,0.0,3.0,100,0.00,,,0.03,0.000000,,2013-11-23 07:32:00,
2013-11-22 23:42:00,41.0,41.0,-100.00,SW,219,0.0,3.0,100,0.00,,,0.03,0.000000,,2013-11-23 07:42:00,
2013-11-22 23:52:00,41.0,41.0,-100.00,SW,219,0.0,3.0,100,0.00,,,0.03,0.000000,,2013-11-23 07:52:00,